Location: Newark
(53.4333°N, 36.0000°E)
Time: 21:14:48
(UTC+00:00)

ISS - Pass Details

Date: 01 October 2019
Orbit: 411 x 421 km, 51.6° (Epoch: 19 October)

Event Time Altitude Azimuth Distance (km) Brightness Sun altitude
Rises 16:58:09 0° 276° (W) 2,348 1.7 -16.2°
Reaches altitude 10° 17:00:17 10° 271° (W) 1,484 0.2 -16.5°
Maximum altitude 17:03:30 48° 195° (SSW) 549 -3.3 -17.0°
Enters shadow 17:04:13 40° 155° (SSE) 626 -3.2 -17.1°
